Precipitable_Water
0.27 0.26 0.24 0.23 0.23 0.23 0.23 0.24 0.26 0.27 0.28 0.29 0.30 0.31 0.32 0.31 0.32 0.33 0.35 0.36 0.38 0.39
0.25 0.24 0.22 0.22 0.23 0.23 0.24 0.25 0.25 0.26 0.26 0.28 0.30 0.31 0.32 0.31 0.31 0.32 0.33 0.35 0.37 0.38
0.23 0.23 0.22 0.22 0.21 0.22 0.23 0.24 0.25 0.25 0.26 0.28 0.29 0.30 0.32 0.32 0.33 0.33 0.32 0.34 0.35 0.36
0.23 0.22 0.21 0.21 0.21 0.22 0.23 0.23 0.24 0.25 0.26 0.27 0.28 0.29 0.29 0.30 0.32 0.33 0.33 0.33 0.33 0.34
0.22 0.20 0.20 0.20 0.21 0.21 0.21 0.22 0.23 0.24 0.24 0.26 0.28 0.29 0.29 0.27 0.29 0.30 0.31 0.32 0.31 0.32
0.18 0.18 0.18 0.19 0.19 0.20 0.20 0.20 0.21 0.22 0.23 0.25 0.28 0.28 0.29 0.29 0.28 0.28 0.31 0.32 0.32 0.31
0.16 0.17 0.17 0.18 0.19 0.19 0.19 0.19 0.20 0.21 0.23 0.25 0.27 0.29 0.29 0.29 0.28 0.28 0.29 0.31 0.33 0.33
0.17 0.17 0.17 0.18 0.18 0.19 0.19 0.20 0.21 0.21 0.22 0.24 0.27 0.29 0.29 0.30 0.30 0.29 0.30 0.31 0.32 0.34
0.16 0.16 0.17 0.17 0.17 0.17 0.18 0.19 0.20 0.20 0.22 0.23 0.27 0.30 0.31 0.32 0.31 0.31 0.30 0.30 0.31 0.33
0.16 0.16 0.16 0.17 0.17 0.17 0.17 0.18 0.18 0.20 0.21 0.23 0.27 0.30 0.32 0.33 0.33 0.32 0.32 0.31 0.32 0.32
0.16 0.15 0.16 0.16 0.16 0.17 0.18 0.18 0.19 0.20 0.22 0.24 0.28 0.31 0.33 0.34 0.34 0.33 0.33 0.33 0.33 0.32
0.15 0.15 0.16 0.16 0.17 0.18 0.19 0.19 0.20 0.22 0.23 0.25 0.29 0.32 0.33 0.34 0.34 0.33 0.33 0.35 0.35 0.34
0.16 0.16 0.17 0.18 0.18 0.19 0.20 0.20 0.22 0.23 0.25 0.28 0.30 0.32 0.34 0.35 0.35 0.33 0.34 0.36 0.36 0.37
0.17 0.18 0.19 0.20 0.20 0.21 0.21 0.21 0.22 0.24 0.27 0.30 0.32 0.33 0.35 0.36 0.36 0.35 0.34 0.34 0.35 0.37
Wind_Speed
53 51 49 46 43 40 36 34 33 31 30 29 29 28 28 28 29 31 32 34 35 35
52 50 46 43 40 37 35 33 31 30 29 28 27 26 26 26 27 29 30 32 33 34
50 47 44 41 38 36 34 32 31 30 28 26 25 24 24 24 25 26 28 30 31 33
48 45 42 39 37 35 34 32 31 29 27 26 25 24 24 23 24 24 25 27 30 31
47 44 42 39 36 35 34 32 31 30 28 27 26 24 24 24 23 24 25 26 28 30
45 43 41 38 36 35 34 32 31 30 29 28 27 26 26 25 24 24 25 26 27 28
44 42 39 38 36 36 35 34 33 32 31 30 29 29 28 27 26 25 24 25 26 27
43 41 40 39 39 38 38 37 36 35 34 33 32 30 29 28 27 27 26 26 27 28
44 43 42 42 41 40 40 39 38 37 36 34 33 32 31 30 29 28 27 27 27 27
45 45 45 44 43 42 42 41 39 37 35 33 32 31 31 30 29 29 28 28 28 28
47 47 47 46 44 42 40 38 36 35 33 32 30 30 30 30 29 29 29 29 29 29
49 49 47 45 43 40 38 36 34 31 30 29 28 28 28 29 28 28 28 29 29 30
50 48 46 44 41 38 36 33 30 28 26 25 24 24 25 25 25 25 26 27 28 29
49 47 45 42 39 36 33 30 27 24 22 21 21 21 22 22 22 23 23 24 25 27
Wind_Direction
320 319 318 316 314 312 309 306 304 302 299 297 293 288 281 271 263 257 253 250 248 247
320 319 318 316 314 312 309 307 304 302 300 298 296 291 284 275 267 259 254 250 248 246
320 320 318 316 314 311 309 307 305 302 299 297 296 294 288 279 271 263 256 251 247 245
321 319 317 315 313 311 308 306 304 301 297 296 295 293 289 283 274 267 259 253 249 245
320 319 316 314 312 310 308 306 303 299 296 293 292 290 289 285 278 270 263 256 250 246
319 318 316 314 312 310 307 305 303 299 295 291 289 287 286 284 279 273 265 258 252 247
319 318 317 314 312 309 306 304 301 298 294 290 287 284 282 281 277 272 266 259 253 248
320 318 316 313 311 308 305 301 298 295 292 288 284 282 279 277 273 270 266 261 254 249
319 318 316 313 310 308 305 301 297 293 289 286 282 279 277 274 271 267 263 259 255 250
319 318 316 314 311 308 305 301 297 292 288 284 280 277 275 273 268 264 261 258 254 250
320 318 317 314 312 309 307 304 299 294 288 283 278 276 274 272 268 263 259 255 252 248
321 319 318 316 313 311 308 305 301 296 291 284 278 276 273 272 268 262 258 253 250 246
322 320 319 317 315 312 309 306 302 297 292 286 281 278 275 272 265 260 256 252 248 244
323 321 320 318 316 313 310 307 303 298 293 288 284 281 278 273 265 259 256 252 248 243